Hourly Data Report for October 22, 2015

All times are specified in Local Standard Time (LST). Add 1 hour to adjust for Daylight Saving Time where and when it is observed.

KITCHENER/WATERLOO
ONTARIO

43°27'39.000" N
80°22'43.000" W
321.60 m
6144239
71368
YKF

Download Data

Hourly Data (October 2015)
Hourly Data Report for October 22, 2015
Temp Definition
°C
Dew Point Temp Definition
°C
Rel Hum Definition
%
Wind Dir Definition
10's deg

Wind Spd Definition
km/h
Visibility Definition
km
Stn Press Definition
kPa
Hmdx Definition


Wind Chill Definition


Weather Definition


TIME
00:00 Legend Double Dagger 15.7 9.1 65 21 26 16.1 97.78     LegendNANA
01:00 Legend Double Dagger 15.9 9.2 64 22 28 16.1 97.75     LegendNANA
02:00 Legend Double Dagger 15.7 9.5 67 23 26 16.1 97.74     LegendNANA
03:00 Legend Double Dagger 15.8 9.6 66 24 28 16.1 97.74     LegendNANA
04:00 Legend Double Dagger 15.9 10.3 69 25 26 16.1 97.76     LegendNANA
05:00 Legend Double Dagger 15.7 10.9 73 25 21 16.1 97.81     LegendNANA
06:00 Legend Double Dagger 12.8 10.4 85 33 24 16.1 97.93     LegendNANA
07:00 Legend Double Dagger 11.4 8.6 83 32 21 16.1 98.03     LegendNANA
08:00 Legend Double Dagger 11.1 7.4 78 32 17 16.1 98.14     LegendNANA
09:00 Legend Double Dagger 11.9 7.3 73 29 21 16.1 98.22     LegendNANA
10:00 Legend Double Dagger 12.6 6.7 67 30 26 16.1 98.23     LegendNANA
11:00 Legend Double Dagger 13.1 6.5 64 30 22 16.1 98.27     LegendNANA
12:00 Legend Double Dagger 13.9 6.9 62 28 26 16.1 98.28     LegendNANA
13:00 Legend Double Dagger 13.7 5.8 59 29 26 16.1 98.27     LegendNANA
14:00 Legend Double Dagger 14.1 5.2 55 29 30 16.1 98.27     LegendNANA
15:00 Legend Double Dagger 12.8 5.1 59 29 28 16.1 98.30     LegendNANA
16:00 Legend Double Dagger 13.5 4.3 54 29 28 16.1 98.35     LegendNANA
17:00 Legend Double Dagger 11.0 3.4 59 32 21 16.1 98.44     LegendNANA
18:00 Legend Double Dagger 9.0 3.3 68 31 15 16.1 98.53     LegendNANA
19:00 Legend Double Dagger 8.0 3.3 72 30 11 16.1 98.58     LegendNANA
20:00 Legend Double Dagger 7.7 4.0 77 32 15 16.1 98.63     LegendNANA
21:00 Legend Double Dagger 6.6 3.9 83 31 9 16.1 98.68     LegendNANA
22:00 Legend Double Dagger 5.6 3.4 86 31 11 16.1 98.71     LegendNANA
23:00 Legend Double Dagger 4.7 2.9 88 31 9 16.1 98.73     LegendNANA

Notes on Data Quality.

Legend

  • E = Estimated
  • M = Missing
  • NA = Not Available
  • ‡ = Partner data that is not subject to review by the National Climate Archives
Date modified: